Temperature
25 24 24 25 25 25 25 25 25 25 26 25 24 24 24 24 24 23 23 23 23 22 22 21 21 20 20 20 20 19 19 18 18 18 17 17 17 17 17 16 16 16 16 16
25 24 25 26 26 25 25 24 25 25 26 25 24 24 24 24 24 23 23 23 23 22 22 21 21 20 20 20 20 19 19 18 18 18 17 17 17 17 16 16 16 16 16 16
24 25 26 26 25 25 25 24 25 25 25 25 24 23 24 24 24 23 23 23 23 22 22 21 20 20 20 20 20 19 19 19 18 18 17 17 17 16 16 16 16 16 16 16
25 26 26 25 25 25 24 25 25 25 24 23 24 22 23 24 23 23 23 23 22 22 21 21 20 20 20 19 19 19 19 19 18 18 17 17 17 16 16 16 16 16 16 16
24 25 25 25 25 25 25 25 25 24 23 23 24 23 23 24 23 23 23 23 22 22 21 21 20 20 19 19 19 19 19 19 18 18 17 17 16 16 16 16 15 15 15 15
25 26 25 25 25 25 25 25 24 24 23 22 24 23 22 23 23 24 23 23 22 22 21 20 20 19 19 19 19 19 19 18 18 18 17 17 17 16 16 16 15 15 15 15
24 25 25 25 24 25 24 23 22 22 21 22 25 24 23 24 25 24 23 23 22 22 21 20 20 19 19 19 18 18 18 18 18 17 17 17 16 16 16 16 15 15 15 15
23 23 25 25 24 23 24 23 22 21 22 23 24 23 23 25 25 24 24 23 22 21 21 20 20 19 19 18 18 18 18 17 17 17 17 17 16 16 16 16 15 15 15 15
23 23 25 25 25 24 23 23 24 23 23 23 23 23 24 24 24 24 23 23 22 21 21 20 20 19 19 18 18 17 17 17 17 17 17 16 16 16 16 16 15 15 15 15
24 23 24 24 24 24 24 23 23 23 22 22 23 23 22 22 23 23 23 22 22 21 21 20 20 19 19 18 18 17 17 17 17 16 16 16 16 16 16 15 15 15 15 15
24 23 23 23 23 23 23 23 23 23 23 22 21 22 24 23 23 23 22 22 21 21 20 20 19 19 19 18 18 17 17 17 16 16 16 16 16 16 16 15 15 15 15 15
23 22 22 23 23 24 23 23 22 21 22 22 22 21 24 23 23 23 22 22 21 21 20 19 19 19 18 18 17 17 17 16 16 16 16 16 16 16 15 15 15 15 15 14
22 21 21 21 22 22 22 23 23 22 22 21 21 21 24 23 23 23 22 22 21 20 20 19 19 18 18 17 17 17 16 16 16 16 16 16 15 15 15 15 15 15 14 14
20 21 21 20 21 21 21 22 22 21 21 21 21 22 22 22 22 22 21 21 20 20 19 19 18 18 18 17 17 16 16 16 16 16 15 15 15 15 15 15 14 14 14 14
21 20 21 21 22 22 21 21 21 21 21 21 22 22 22 22 21 21 21 20 20 19 19 18 18 17 17 17 17 16 16 16 16 15 15 15 15 15 15 14 14 14 14 14
20 20 20 20 21 21 21 21 21 21 21 21 21 21 22 22 21 21 20 20 19 18 18 18 17 17 17 17 16 16 16 15 15 15 15 15 14 14 14 14 14 14 13 13
20 19 19 19 21 20 20 21 21 21 21 21 20 21 21 20 20 20 20 19 19 18 17 17 17 17 16 16 16 15 15 15 15 15 14 14 14 14 14 14 13 13 13 13
19 19 19 19 19 18 20 22 22 21 21 21 21 20 20 20 19 19 19 18 18 17 17 17 16 16 16 16 15 15 15 15 14 14 14 13 13 13 13 13 13 13 13 12
19 18 18 18 18 19 20 21 21 20 20 21 20 20 20 20 19 18 18 17 17 17 16 16 16 16 16 15 15 14 14 14 14 13 13 13 13 13 13 12 12 12 12 12
19 18 18 18 17 18 19 20 21 20 19 19 19 19 19 18 17 17 17 17 16 16 16 16 15 15 15 15 14 14 14 13 13 13 13 13 12 12 12 12 12 12 12 11
17 17 17 17 17 18 19 20 20 18 18 18 18 18 17 17 17 17 16 15 15 15 15 15 15 15 14 14 14 14 13 13 13 13 12 12 12 12 12 12 11 11 11 11
18 17 17 17 16 17 19 19 18 17 18 18 17 17 17 16 16 15 15 15 14 14 14 14 14 14 14 14 13 13 13 13 12 12 12 12 12 12 11 11 11 11 11 11
18 18 17 17 17 18 18 18 17 17 17 17 17 16 16 16 15 15 14 14 14 14 13 13 13 13 13 13 13 12 12 12 12 12 12 11 11 11 11 11 11 10 10 10
17 18 17 17 17 17 17 17 17 16 16 16 16 15 15 15 15 14 14 14 13 13 13 13 12 12 12 12 12 12 12 12 12 11 11 11 10 10 10 10 10 10 10 10
15 16 16 16 16 17 16 16 16 16 15 15 15 15 15 14 14 14 13 13 13 12 12 12 12 12 12 12 11 11 11 11 11 11 10 10 10 10 10 10 10 10 10 10
15 15 14 15 15 15 15 15 15 14 14 14 14 14 14 14 13 13 13 13 12 12 12 11 11 11 11 11 11 11 11 11 11 10 10 10 10 9 9 9 9 9 9 9
Wind_Speed
8 7 7 6 7 7 6 6 5 3 3 4 4 5 5 6 5 5 5 5 7 7 7 7 7 7 7 6 5 7 7 6 5 2 2 3 2 2 2 2 3 3 3 4
8 9 8 7 6 6 8 7 6 3 2 3 4 4 4 6 7 5 6 6 6 7 7 7 7 7 6 6 5 6 6 6 6 3 3 3 3 3 2 2 2 2 3 4
10 6 6 7 7 8 9 8 6 4 4 5 5 5 7 8 8 6 5 5 6 8 8 8 7 7 6 5 5 5 6 6 6 5 3 3 3 3 2 2 1 1 3 2
8 6 6 7 7 7 7 5 6 6 6 5 7 5 6 8 8 8 7 6 6 7 7 8 7 7 6 6 5 4 5 6 6 6 4 4 4 3 3 2 1 2 2 2
7 6 7 7 6 7 6 5 7 8 7 9 8 6 4 7 8 9 8 7 5 5 7 8 8 8 7 6 4 3 4 5 6 6 5 4 4 3 3 3 3 2 2 2
9 6 6 6 6 6 6 7 9 8 7 9 10 7 3 4 6 7 8 8 7 6 6 7 7 7 6 6 5 3 4 4 5 6 6 5 5 4 4 3 3 2 2 1
9 9 7 4 5 6 8 7 4 5 6 7 6 4 2 3 4 5 6 7 7 7 7 7 8 8 6 6 5 4 4 4 5 5 5 5 5 5 5 4 3 3 2 2
9 8 7 6 7 6 7 8 5 4 4 3 3 2 3 4 5 5 5 6 6 7 7 7 7 7 7 7 6 5 4 4 4 4 4 4 5 4 4 4 4 3 3 3
6 4 5 5 6 7 7 8 8 8 9 7 4 3 3 4 4 4 4 5 6 6 7 7 7 7 7 8 7 6 5 5 4 3 3 3 4 5 4 4 4 3 2 2
7 5 4 4 5 8 8 7 6 6 5 6 4 4 3 5 4 3 3 4 4 5 5 6 7 8 7 7 7 7 6 5 4 4 3 2 3 4 4 4 4 3 3 3
9 8 5 5 6 8 7 7 7 6 6 5 4 0 2 3 3 3 2 3 3 4 4 4 5 6 7 7 7 6 6 5 4 4 4 3 3 3 3 4 3 3 3 3
6 7 8 7 5 6 7 7 7 6 6 6 5 1 2 3 3 2 1 2 3 4 4 3 4 6 7 7 7 6 5 5 4 4 4 4 3 3 3 3 3 3 3 3
5 6 7 5 5 6 7 7 7 7 7 7 6 2 2 2 2 2 2 2 2 4 4 4 4 5 6 6 6 6 5 5 4 4 4 4 4 4 3 3 3 3 2 2
3 7 9 7 5 4 6 8 8 8 7 8 8 4 2 1 1 2 1 1 2 3 4 4 4 5 5 6 6 6 4 4 4 4 4 4 4 4 3 3 3 3 3 2
4 9 11 10 9 9 9 10 10 11 10 10 9 7 3 0 1 1 1 2 2 2 2 3 3 3 4 5 5 5 4 3 4 4 4 3 3 3 3 3 3 3 3 2
5 8 11 12 11 11 13 12 12 13 12 12 11 9 4 2 0 1 1 2 2 2 1 1 3 3 3 4 5 5 5 4 4 4 3 3 3 2 3 3 3 3 3 2
7 9 10 10 10 11 13 12 13 12 10 9 9 6 2 2 2 2 2 2 1 2 2 1 1 2 3 3 3 4 4 4 4 4 3 3 3 2 2 2 3 3 3 2
10 10 7 9 9 13 6 3 4 6 5 4 4 3 2 2 1 1 2 2 2 1 1 1 1 1 2 3 3 3 3 4 4 4 4 3 3 3 2 2 2 2 2 2
10 9 7 7 9 10 7 4 4 5 6 4 4 3 3 2 1 1 3 3 2 2 1 0 0 0 2 3 3 3 2 3 3 4 4 4 4 4 3 3 2 2 2 2
9 9 8 8 8 8 2 2 3 3 4 1 1 1 2 1 2 1 3 3 3 3 2 1 1 0 2 2 3 3 3 3 3 3 4 4 4 4 4 3 3 1 2 2
7 8 10 10 10 5 2 3 2 3 1 3 3 3 3 2 2 1 2 3 3 2 2 2 1 0 1 2 3 3 3 3 3 2 2 3 4 4 4 3 2 2 2 3
7 6 8 8 9 5 2 2 1 2 4 4 4 3 3 3 2 2 2 2 2 1 1 1 0 0 1 1 2 3 3 2 3 2 2 2 3 3 3 3 3 3 3 3
5 4 3 3 3 1 2 3 4 4 3 4 4 3 2 2 1 1 1 1 1 0 0 0 0 1 1 1 1 2 2 3 3 2 2 2 2 3 3 4 4 3 3 3
5 5 6 5 4 3 4 3 4 4 4 4 4 4 3 3 3 2 2 1 1 1 0 0 1 1 1 1 1 1 2 3 3 3 3 2 3 3 3 3 4 3 3 3
6 6 8 8 5 5 4 4 5 4 5 5 5 5 4 4 4 4 3 2 2 1 1 1 2 2 2 2 2 2 2 3 3 3 3 3 3 4 3 3 3 4 3 4
7 8 8 7 6 6 6 6 7 6 6 6 6 6 5 4 5 5 3 2 2 2 2 2 3 3 3 2 2 3 3 3 4 3 3 3 3 3 3 3 2 2 3 3
Wind_Direction
209 230 238 237 236 254 269 267 263 251 194 215 218 225 202 182 191 196 189 192 172 169 162 153 149 144 146 147 151 145 145 142 128 129 118 118 113 101 89 97 82 85 91 90
220 229 243 253 253 260 268 267 263 261 245 254 239 237 217 193 195 209 200 196 181 167 158 155 153 150 157 160 166 151 153 154 142 142 139 139 127 124 108 96 111 97 88 91
236 237 234 240 243 248 251 260 265 268 261 255 250 239 224 191 189 194 208 201 191 173 166 163 162 160 156 161 179 167 157 147 138 142 127 121 104 93 93 107 115 104 101 105
245 244 245 246 248 261 259 272 279 268 266 256 237 252 225 191 182 185 195 203 198 173 164 164 163 159 167 175 185 168 154 148 141 138 135 137 135 142 158 144 145 122 108 104
250 245 248 248 254 266 278 294 274 266 264 269 247 249 234 176 183 190 188 191 185 173 165 166 164 167 171 169 170 168 151 144 133 138 146 148 144 152 142 134 143 139 125 123
255 249 249 259 264 260 269 270 262 252 251 257 245 240 242 192 184 178 176 184 176 168 159 162 160 161 163 156 159 163 142 137 135 140 148 154 155 151 142 138 144 150 141 135
241 235 224 244 263 246 247 252 254 232 226 244 232 223 205 143 143 155 170 173 166 164 168 166 160 161 164 158 156 153 149 147 144 151 157 163 160 163 163 160 165 158 150 149
239 227 205 214 242 250 254 254 256 269 263 260 231 222 144 121 119 137 155 163 159 162 170 168 163 162 161 163 162 160 161 156 154 166 168 165 158 159 161 168 160 163 158 171
271 241 189 210 237 251 257 255 261 274 280 277 231 194 159 115 127 143 153 153 158 163 165 168 167 169 167 167 164 163 166 163 160 164 170 163 156 154 157 162 152 152 153 166
286 278 223 219 227 236 254 280 272 259 270 270 251 226 175 164 152 143 146 143 156 158 157 168 171 172 172 166 162 161 166 165 164 165 174 162 146 146 150 149 149 162 156 152
276 272 242 224 228 236 232 243 258 267 266 272 278 7 86 125 129 151 153 141 147 159 161 160 165 169 162 155 157 162 170 170 169 176 172 154 142 136 137 139 147 158 153 154
270 278 260 232 227 249 256 251 254 259 273 274 277 243 100 108 117 126 144 125 132 134 132 144 157 159 155 157 162 168 172 175 174 173 167 152 146 144 135 139 151 153 144 140
310 275 268 237 212 219 238 246 261 271 274 272 268 211 115 94 112 108 113 122 136 133 135 139 144 153 157 158 161 163 172 174 164 159 160 161 162 158 163 154 138 136 123 135
296 265 264 267 284 274 259 257 260 262 260 269 272 257 191 168 92 100 104 126 128 125 136 138 143 152 156 156 159 160 165 164 155 154 160 167 167 165 170 156 144 144 139 134
257 263 268 270 274 276 276 268 256 253 259 266 281 286 274 287 87 106 106 114 109 91 101 137 142 147 152 156 159 156 154 154 160 164 166 169 165 162 152 143 141 141 141 138
247 266 271 268 265 268 269 266 260 255 254 262 273 278 292 313 8 122 105 99 94 84 51 102 143 148 153 161 161 153 150 159 163 163 165 150 146 146 142 147 144 140 134 134
246 259 269 269 268 272 260 256 250 249 249 256 264 272 292 314 359 43 58 84 87 82 66 36 140 155 162 164 154 153 151 162 165 159 147 140 140 135 139 137 130 139 141 131
258 263 264 268 266 256 254 288 261 253 252 254 266 289 299 301 337 35 85 78 72 77 90 45 42 140 152 152 151 137 145 160 164 159 150 150 144 141 134 127 136 137 134 143
241 252 255 257 258 262 259 266 266 252 252 253 256 265 284 313 347 50 76 66 56 55 45 46 84 141 137 137 141 142 162 176 163 157 153 155 156 156 153 154 159 157 148 143
221 235 245 252 254 258 285 3 348 281 250 4 336 330 319 326 278 270 78 66 50 37 25 26 30 87 129 147 156 166 184 178 173 167 157 156 157 163 169 169 166 157 148 149
214 222 232 247 254 261 342 343 319 252 352 37 28 26 17 327 328 14 56 47 53 44 34 44 34 64 136 153 162 176 186 180 161 140 146 157 161 166 167 166 164 154 143 143
232 232 231 239 247 248 24 310 321 34 34 18 28 34 28 20 24 18 38 28 32 51 56 55 122 146 139 137 169 187 186 152 129 140 158 157 148 156 163 154 151 151 147 152
251 258 261 251 249 6 25 11 11 15 11 7 5 4 358 345 322 317 343 1 358 14 106 43 151 160 161 152 169 193 166 137 142 154 166 162 144 144 153 158 159 160 156 161
280 300 275 263 251 293 317 333 336 338 341 353 348 341 330 311 304 305 304 286 285 302 295 276 201 212 191 182 166 166 158 149 160 169 178 176 161 158 165 164 165 160 164 169
289 291 285 276 274 286 291 306 310 321 335 336 328 319 310 308 303 294 284 269 261 272 254 232 223 226 222 200 183 163 166 171 181 184 186 183 172 167 169 170 166 168 172 180
267 272 273 279 298 297 298 317 322 316 311 310 308 308 308 305 294 292 284 263 247 245 248 240 240 233 224 211 192 172 181 191 192 191 190 182 169 168 168 163 136 118 156 157
Height
1479 1482 1483 1479 1477 1478 1479 1481 1483 1479 1475 1480 1484 1485 1483 1485 1487 1489 1491 1493 1495 1497 1500 1502 1505 1507 1510 1512 1514 1515 1517 1518 1519 1521 1522 1523 1524 1525 1526 1527 1527 1528 1528 1529
1478 1480 1476 1474 1474 1476 1479 1482 1482 1478 1474 1478 1482 1483 1481 1482 1485 1487 1488 1490 1492 1495 1498 1501 1503 1505 1508 1510 1512 1514 1516 1517 1518 1520 1521 1522 1524 1525 1525 1526 1527 1527 1528 1528
1477 1475 1471 1473 1475 1477 1479 1481 1481 1481 1477 1477 1482 1486 1481 1479 1481 1484 1486 1488 1490 1492 1495 1498 1501 1503 1506 1508 1510 1512 1514 1515 1517 1518 1520 1521 1522 1524 1524 1525 1526 1527 1527 1528
1472 1470 1471 1473 1474 1476 1480 1474 1476 1478 1484 1486 1483 1494 1481 1475 1478 1480 1483 1486 1488 1490 1493 1496 1498 1501 1504 1506 1508 1510 1512 1513 1515 1516 1518 1519 1520 1522 1523 1524 1525 1526 1527 1528
1472 1470 1472 1474 1474 1474 1476 1473 1475 1477 1482 1485 1480 1486 1482 1471 1477 1477 1479 1483 1485 1488 1491 1493 1496 1499 1502 1504 1506 1508 1510 1512 1513 1514 1516 1518 1519 1521 1522 1523 1524 1525 1526 1527
1469 1468 1469 1471 1470 1471 1472 1474 1475 1476 1482 1493 1479 1483 1485 1473 1472 1473 1476 1479 1482 1486 1489 1492 1494 1497 1499 1502 1504 1506 1508 1509 1510 1512 1514 1516 1517 1519 1520 1521 1522 1524 1525 1526
1472 1468 1467 1469 1473 1472 1473 1482 1492 1494 1496 1489 1468 1476 1479 1467 1465 1469 1473 1476 1480 1483 1487 1490 1492 1494 1497 1499 1501 1504 1505 1507 1508 1510 1513 1514 1515 1517 1518 1520 1521 1522 1523 1524
1475 1475 1467 1468 1472 1475 1474 1477 1493 1500 1494 1483 1471 1476 1471 1462 1465 1468 1471 1474 1478 1481 1484 1487 1490 1492 1494 1497 1499 1501 1503 1505 1507 1509 1511 1512 1513 1515 1517 1518 1519 1520 1521 1522
1473 1472 1463 1465 1467 1470 1474 1475 1471 1480 1480 1484 1477 1471 1467 1464 1465 1468 1470 1473 1476 1479 1482 1484 1487 1490 1492 1494 1496 1499 1501 1503 1505 1507 1509 1510 1512 1513 1515 1516 1518 1519 1520 1521
1468 1473 1466 1465 1467 1468 1470 1471 1473 1480 1489 1491 1480 1475 1475 1469 1468 1469 1470 1472 1475 1477 1480 1482 1484 1487 1489 1491 1494 1496 1499 1501 1503 1505 1507 1508 1510 1512 1513 1514 1516 1517 1518 1519
1468 1473 1471 1468 1470 1471 1471 1473 1473 1475 1476 1487 1490 1484 1463 1465 1466 1468 1469 1471 1473 1476 1478 1480 1482 1484 1487 1489 1492 1494 1497 1499 1500 1503 1505 1506 1508 1510 1511 1513 1514 1515 1516 1517
1468 1471 1473 1468 1463 1464 1466 1469 1472 1483 1480 1475 1481 1482 1460 1463 1464 1466 1469 1470 1473 1474 1476 1478 1480 1482 1485 1487 1490 1492 1494 1496 1498 1500 1502 1504 1506 1508 1509 1510 1512 1513 1514 1515
1472 1475 1480 1477 1473 1468 1467 1467 1468 1471 1475 1477 1482 1480 1461 1463 1464 1466 1468 1470 1471 1473 1475 1477 1478 1481 1483 1486 1488 1490 1492 1494 1496 1498 1500 1501 1503 1505 1507 1508 1509 1510 1512 1513
1474 1474 1478 1484 1476 1470 1471 1469 1469 1472 1479 1478 1474 1471 1465 1464 1465 1466 1468 1469 1471 1472 1473 1475 1477 1479 1481 1484 1486 1488 1490 1492 1493 1495 1497 1499 1500 1502 1504 1506 1507 1508 1509 1511
1473 1475 1471 1468 1465 1466 1468 1468 1468 1470 1470 1474 1469 1467 1464 1464 1465 1466 1467 1469 1470 1471 1473 1474 1476 1477 1479 1482 1484 1486 1488 1490 1491 1493 1494 1496 1498 1500 1501 1503 1504 1506 1507 1508
1472 1473 1471 1470 1465 1465 1466 1464 1464 1465 1465 1466 1466 1466 1462 1462 1464 1465 1466 1468 1469 1471 1472 1474 1475 1476 1478 1480 1482 1484 1485 1487 1489 1490 1491 1493 1495 1497 1498 1499 1501 1503 1504 1505
1471 1473 1475 1473 1466 1466 1469 1460 1460 1461 1459 1462 1466 1464 1461 1463 1464 1465 1466 1467 1469 1470 1472 1473 1474 1475 1476 1478 1480 1482 1483 1485 1487 1488 1489 1490 1492 1494 1495 1497 1498 1500 1501 1503
1470 1471 1473 1473 1472 1479 1461 1451 1451 1455 1456 1457 1459 1460 1461 1463 1464 1465 1466 1467 1468 1470 1471 1472 1473 1474 1475 1476 1478 1480 1482 1483 1484 1486 1487 1488 1489 1491 1492 1494 1495 1497 1498 1500
1466 1470 1473 1473 1474 1466 1457 1452 1452 1455 1457 1456 1458 1459 1461 1462 1463 1465 1466 1467 1468 1469 1470 1471 1472 1473 1474 1475 1476 1477 1479 1481 1482 1483 1484 1485 1486 1488 1489 1490 1492 1493 1495 1496
1462 1465 1471 1471 1474 1472 1460 1452 1452 1455 1459 1457 1457 1459 1460 1462 1466 1467 1466 1466 1467 1467 1468 1469 1470 1471 1472 1473 1474 1475 1477 1478 1479 1480 1481 1483 1484 1485 1486 1487 1489 1490 1492 1493
1464 1466 1470 1471 1470 1461 1456 1454 1454 1465 1464 1459 1458 1459 1461 1463 1465 1465 1464 1465 1465 1465 1466 1466 1467 1469 1470 1471 1472 1473 1474 1476 1477 1478 1479 1480 1481 1482 1483 1485 1486 1487 1489 1490
1460 1463 1464 1465 1469 1468 1457 1456 1459 1461 1460 1460 1460 1461 1462 1463 1463 1463 1463 1464 1464 1464 1464 1465 1465 1466 1467 1468 1469 1471 1472 1473 1474 1475 1476 1477 1477 1479 1480 1481 1483 1484 1486 1487
1455 1457 1458 1460 1462 1458 1457 1458 1459 1459 1460 1460 1461 1461 1462 1462 1463 1463 1463 1462 1462 1463 1463 1463 1463 1464 1464 1465 1467 1468 1469 1470 1471 1472 1473 1474 1474 1476 1477 1478 1479 1481 1482 1484
1455 1455 1455 1455 1455 1456 1457 1458 1459 1460 1460 1460 1461 1461 1461 1461 1461 1461 1461 1461 1461 1461 1461 1461 1461 1461 1461 1463 1464 1464 1466 1467 1468 1469 1470 1471 1472 1473 1474 1475 1476 1477 1478 1480
1459 1458 1456 1455 1455 1456 1456 1458 1459 1459 1459 1459 1459 1459 1459 1459 1459 1459 1458 1458 1458 1458 1458 1458 1458 1458 1459 1460 1460 1461 1462 1463 1465 1466 1467 1468 1469 1470 1471 1472 1473 1474 1475 1476
1459 1459 1459 1457 1456 1457 1456 1457 1457 1458 1457 1457 1457 1457 1457 1457 1456 1456 1456 1455 1456 1456 1455 1455 1455 1456 1456 1456 1457 1458 1459 1461 1462 1463 1464 1465 1466 1467 1468 1469 1470 1471 1472 1474